www.pogodaiklimat.ru

Погода и климат >> Архив погоды >> Саудовская Аравия >> Аэропорт Вади-эль-Давасир


ПОГОДА в Аэропорту Вади-эль-Давасир

  • Прогноз погоды в Аэропорту Вади-эль-Давасир
  • Монитор погоды в Аэропорту Вади-эль-Давасир

АРХИВ ПОГОДЫ в Аэропорту Вади-эль-Давасир

Время (UTC), дата Ветер
(напр.,м/с)
 
Видим.   Явления Облачность Т
(С)
Тd
(С)
f
(%)
Тe
(С)
Тes
(С)
Комфортность P
(гПа)
Po
(гПа)
Тmin
(С)
Tmax
(С)
R
(мм)
R24
(мм)
S
(см)
15 15.09 С 6 10 км ясно +38.0 +7.0 15 +36 +36 очень
жарко
1003.0 936.5
18 15.09 В 2 10 км ясно +33.0 +7.0 20 +31 +31 жарко 1004.4 938.1 +40.0
21 15.09 ЮВ 1 10 км ясно +29.0 +8.0 27 +28 +28 жарко 1004.4 938.0
00 16.09 СЗ 1 10 км ясно +27.0 +6.0 26 +26 +26 жарко 1003.5 937.1
03 16.09 СЗ 2 10 км ясно +24.0 +6.0 31 +24 +24 комфорт 1006.0 938.7
06 16.09 СЗ 3 10 км 4/0
[Ci sp]
+32.0 +8.0 23 +31 +38 жарко 1007.2 940.2 +23.0
09 16.09 СВ 5 10 км 5/0
[Ac trans Ci sp]
+39.0 +10.0 18 +38 +45 очень
жарко
1004.5 938.0
12 16.09 В 3 10 км 6/3 900 м
[Cu med, cong Ac trans Ci sp]
+40.0 +11.0 18 +39 +43 очень
жарко
1002.4 935.8
15 16.09 СВ 6 10 км 5/0
[Ac trans Ci sp]
+37.0 +10.0 20 +36 +36 очень
жарко
1002.9 936.0
18 16.09 С 5 10 км 4/0
[Ci sp]
+33.0 +9.0 23 +32 +32 жарко 1004.2 937.8 +41.0
21 16.09 С 3 10 км ясно +30.0 +10.0 29 +30 +30 жарко 1003.6 937.5
00 17.09 СВ 4 10 км ясно +32.0 +7.0 21 +30 +30 жарко 1004.3 937.1
03 17.09 В 3 10 км ясно +28.0 +10.0 32 +28 +28 жарко 1006.4 938.3
06 17.09 В 2 10 км ясно +35.0 +11.0 23 +34 +44 очень
жарко
1005.9 939.3 +27.0
09 17.09 В 5 10 км ясно +39.4 +14.0 22 +40 +50 очень
душно
1003.6 937.5
12 17.09 В 4 10 км 4/3 1200 м
[Cu hum]
+42.4 +11.0 16 +41 +46 опасность
перегрева
1001.3 935.4
15 17.09 СВ 3 10 км 1/1 1200 м
[Cu hum]
+38.6 +11.0 19 +38 +38 очень
жарко
1001.6 935.4
18 17.09 СВ 2 10 км ясно +33.0 +10.0 24 +32 +32 жарко 1003.7 937.5 +42.0
21 17.09 В 4 10 км ясно +31.0 +9.0 26 +30 +30 жарко 1003.4 937.5
00 18.09 В 4 10 км ясно +29.0 +8.0 27 +28 +28 жарко 1002.9 936.8
03 18.09 ЮВ 2 10 км ясно +27.0 +8.0 30 +27 +27 жарко 1005.2 938.2
06 18.09 ЮВ 2 10 км ясно +33.0 +11.0 26 +33 +42 жарко 1006.8 939.9 +26.0
09 18.09 ЮВ 1 10 км ясно +40.0 +13.0 20 +40 +63 опасность
солнечного
удара
1004.2 938.0
12 18.09 СВ 2 10 км 3/3 1200 м
[Cu hum]
+42.0 +12.0 17 +41 +48 опасность
перегрева
1002.1 936.1
15 18.09 СВ 4 10 км ясно +39.0 +11.0 19 +38 +38 очень
жарко
1002.7 936.3
18 18.09 В 2 10 км ясно +33.0 +10.0 24 +32 +32 жарко 1004.5 938.2 +43.0
21 18.09 В 3 10 км ясно +30.0 +9.0 27 +29 +29 жарко 1004.3 938.1
00 19.09 ЮЗ 2 10 км ясно +28.0 +9.0 30 +28 +28 жарко 1004.1 937.9
03 19.09 ЮВ 2 10 км ясно +27.0 +10.0 34 +27 +27 жарко 1006.1 939.1
06 19.09 штиль 0 10 км ясно +35.0 +12.0 25 +35 +48 очень
жарко
1007.0 940.2 +27.0
09 19.09 В 4 10 км ясно +40.0 +13.0 20 +40 +52 опасность
солнечного
удара
1004.7 938.5
12 19.09 СВ 4 10 км ясно +41.0 +11.0 17 +40 +46 очень
жарко
1002.8 936.6
15 19.09 В 5 10 км ясно +39.0 +10.0 18 +38 +38 очень
жарко
1003.3 936.9
18 19.09 СВ 2 10 км ясно +32.5 +10.0 25 +32 +32 жарко 1004.0 937.8 +42.0
21 19.09 СВ 3 10 км ясно +31.0 +10.0 27 +31 +31 жарко 1003.4 937.5
00 20.09 СВ 2 10 км ясно +30.0 +10.0 29 +30 +30 жарко 1003.4 937.4
03 20.09 нст 1 10 км ясно +25.6 +10.0 37 +26 +26 жарко 1006.1 938.9
06 20.09 СВ 4 10 км ясно +35.0 +13.0 27 +35 +43 очень
жарко
1006.7 940.1 +25.0
09 20.09 СВ 4 10 км ясно +40.0 +11.0 18 +39 +53 опасность
солнечного
удара
1004.1 938.2
12 20.09 СВ 12 10 км ясно +41.0 +11.0 17 +40 +40 очень
жарко
1002.3 936.4
15 20.09 СВ 8 10 км ясно +37.0 +11.0 21 +36 +36 очень
жарко
1003.7 936.9
18 20.09 В 4 10 км ясно +34.0 +11.0 25 +34 +34 очень
жарко
1005.0 938.9 +41.0
21 20.09 В 3 10 км ясно +29.0 +10.0 31 +29 +29 жарко 1004.5 938.3
00 21.09 В 3 10 км ясно +26.5 +10.0 35 +27 +27 жарко 1004.0 937.5
03 21.09 СЗ 1 10 км ясно +25.0 +10.0 39 +26 +26 жарко 1006.2 939.0
06 21.09 В 1 10 км 5/0
[Ci sp]
+31.0 +10.0 27 +31 +41 жарко 1007.0 939.8 +24.0
09 21.09 В 3 10 км 5/0
[Ci sp]
+38.0 +13.0 23 +38 +52 опасность
солнечного
удара
1004.4 937.8
12 21.09 СВ 6 10 км 6/0
[Ci sp]
+39.0 +14.0 23 +40 +43 очень
душно
1002.4 935.8
15 21.09 СВ 4 10 км 6/0
[Ac trans Ci sp]
+36.0 +13.0 25 +36 +36 очень
жарко
1003.2 936.2
18 21.09 В 3 10 км 4/0
[Ac trans]
+31.0 +12.0 31 +31 +31 жарко 1004.4 937.7 +40.0
21 21.09 ЮВ 2 10 км ясно +29.0 +7.0 25 +28 +28 жарко 1003.4 937.0
00 22.09 ЮЗ 2 10 км ясно +25.0 +8.0 34 +25 +25 комфорт 1003.4 936.7
06 22.09 З 1 10 км ясно +31.0 +7.0 22 +30 +41 жарко 1007.3 940.0 +22.0
09 22.09 ЮЗ 3 10 км ясно +38.0 +8.0 16 +36 +51 опасность
солнечного
удара
1005.0 938.2
12 22.09 СВ 6 10 км ясно +39.0 +9.0 16 +37 +41 очень
жарко
1002.8 936.0

 

Местоположение метеостанции Аэропорт Вади-эль-Давасир (Саудовская Аравия): широта 20.50 долгота 45.25 высота над уровнем моря 622 м.

В архиве по умолчанию представлена погода в Аэропорту Вади-эль-Давасир за последнюю неделю. Архивные данные за месяц целиком и за предыдущие месяцы, начиная с января 2011 года, Вы можете получить, выбрав интересующий диапазон дат из раскрывающегося списка и нажав кнопку "Ввод!".


*Определитесь, кто Вы:
робот инопланетянин человек

Внимание! Время в таблицах - всемирное. Для получения местного времени необходимо прибавить поправку, которая равна 3 ч.

Смотрите также архив погоды в соседних городах и на ближайших метеорологических станциях:

Погода в Бише (Саудовская Аравия) (279 км)
Погода в Найране (Саудовская Аравия) (332 км)
Погода в Хамис-Мушайте (Саудовская Аравия) (355 км)
Погода в Абхе (Саудовская Аравия) (372 км)
Погода в Аль-Бахе (Саудовская Аравия) (376 км)
Погода в Шаруре (Саудовская Аравия) (389 км)
Погода в Гизане (Саудовская Аравия) (491 км)
Погода в Аль-Таифе (Саудовская Аравия) (500 км)
Погода в Аэропорту Король Халид (Саудовская Аравия) (515 км)
Погода в Хадже (Йемен) (549 км)

Пояснения к столбцам:

Ветер - указаны скорость ветра в м/с - средняя за 10 мин, порывы в срок и между сроками (в фигурных скобках) и направление, откуда дует ветер: С - северный, СВ - северо-восточный, В - восточный, ЮВ - юго-восточный, Ю - южный, ЮЗ - юго-западный, З - западный, СЗ - северо-западный.
Видимость - горизонтальная дальность видимости в метрах или километрах. При видимости от 1 до 10 км при отсутствии осадков обычно наблюдается дымка, при ухудшении видимости до 1 км и менее - туман. В сухую погоду видимость может ухудшаться дымом, пылью или мглою.
Явления - указаны атмосферные явления, наблюдавшиеся в срок или в последний час перед сроком; фигурными скобками обозначены явления, наблюдавшиеся между сроками (за 1-3 часа до срока); квадратными скобками обозначены град или гололедные отложения с указанием их диаметра в мм.
Облачность - указаны через наклонную черту общая и нижняя облачность в баллах и высота нижней границы облаков в метрах; квадратными скобками обозначены формы облаков: Ci - перистые, Cs - перисто-слоистые, Cc - перисто-кучевые, Ac - высококучевые, As - высокослоистые, Sc - слоисто-кучевые, Ns - слоисто-дождевые, Cu - кучевые, Cb - кучево-дождевые. Подробнее классификацию облаков см. в Атласе облаков (PDF).
T - Температура воздуха - температура, измеренная на высоте 2 м над землей.
Td - Температура точки росы - температура, при понижении до которой содержащийся в воздухе водяной пар достигнет насыщения.
f - Относительная влажность воздуха - влажноcть воздуха, измеренная на высоте 2 м над землей.
Te - Эффективная температура - температура, которую ощущает одетый по сезону человек в тени. Характеристика душности погоды. При расчете учитывается влияние влажности воздуха и скорости ветра на теплоощущения человека.
Tes - Эффективная температура на солнце - температура, которую ощущает человек, с поправкой на солнечный нагрев. Характеристика знойности погоды. Зависит от высоты солнца над горизонтом, облачности и скорости ветра. Ночью, в пасмурную погоду, а также при ветре 12 м/с и более поправка равна нулю.
P - Атмосферное давление - приведенное к уровню моря атмосферное давление.
Po - Атмосферное давление - измеренное на уровне метеостанции атмосферное давление.
Tmin - Минимальная температура - минимум температуры воздуха на высоте 2 м над землей.
Tmax - Максимальная температура - максимум температуры воздуха на высоте 2 м над землей.
R - Количество осадков - Количество выпавших осадков за период времени, мм. При наведении курсора мыши на число - период времени, за который выпало указанное количество осадков.
R24 - Количество осадков - Количество выпавших осадков за 24 часа, мм.
S - Снежный покров - Высота снежного покрова, см. При наведении курсора мыши на число - состояние снежного покрова и степень покрытия местности в баллах.